Regional Weather Roundup
Issued by NWS

Home | Current Version | Previous Version | Text Only | Print | Product List | Glossary On
Versions: 1 2 3 4 5 6 7 8 9 10 11 12 13 14 15 16 17 18 19 20 21 22 23 24 25 26 27 28 29 30 31 32 33 34 35 36 37 38 39 40 41 42 43 44 45 46 47 48 49 50
000
ASUS44 KMEG 020510
RWRTN
TENNESSEE HOURLY STATE WEATHER ROUNDUP
NATIONAL WEATHER SERVICE MEMPHIS TN
1200 AM CDT THU OCT 02 2014

TNZ002-004-019-021-049-052-054-088>092-020600-
WEST TENNESSEE

CITY           SKY/WX    TMP DP  RH WIND       PRES   REMARKS
MEMPHIS INTL   CLEAR     77  62  59 SE9       29.91S
NWS MEMPHIS      N/A    N/A N/A N/A MISG        N/A
JACKSON        CLEAR     68  61  78 SE5       29.93S
DYERSBURG      CLEAR     73  55  53 S5        29.92F
UNION CITY     PTCLDY    68  63  83 SE3       29.91S
PARIS          CLEAR     66  57  72 SE5       29.94F
HUNTINGDON     CLEAR     65  60  83 CALM      29.93F
LEXINGTON      PTCLDY    63  61  94 CALM      29.94S
SAVANNAH       CLEAR     64  64 100 CALM      29.96S
$$

TNZ008-025-027-028-033-062-065-066-020600-
NORTH MIDDLE TENNESSEE

CITY           SKY/WX    TMP DP  RH WIND       PRES   REMARKS
NASHVILLE      CLEAR     68  59  73 S3        29.97F
PORTLAND       CLEAR     64  54  68 S3        29.97F
CLARKSVILLE    CLEAR     66  60  81 SE3       29.95S
LEBANON        CLEAR     62  57  83 CALM      29.97S
SMYRNA         CLEAR     64  59  84 SE6       29.98F
MURFREESBORO   CLEAR     66  58  75 CALM      29.98S
COOKEVILLE     CLEAR     55  55 100 CALM      30.01S
GALLATIN       CLEAR     63  59  87 CALM      29.98F
CROSSVILLE     CLEAR     61  56  83 CALM      30.07S
$$

TNZ061-075-076-078-094-096-097-020600-
SOUTH MIDDLE TENNESSEE

CITY           SKY/WX    TMP DP  RH WIND       PRES   REMARKS
LEWISBURG      CLEAR     60  58  93 CALM      29.98S
FAYETTEVILLE   CLEAR     66  55  68 S6        30.00S
TULLAHOMA      CLEAR     61  57  88 CALM      30.02S
WINCHESTER     CLEAR     64  59  82 SE5       30.02R
MCMINNVILLE    CLEAR     61  61 100 CALM      30.01S
COLUMBIA       CLEAR     61  61 100 CALM      29.96S
SHELBYVILLE    CLEAR     64  61  88 E3        30.00S
$$

TNZ017-018-042-046-047-020600-
NORTHEAST TENNESSEE

CITY           SKY/WX    TMP DP  RH WIND       PRES   REMARKS
TRI CITIES     CLEAR     54  51  90 CALM      30.08S
ELIZABETHTON   CLEAR     55  50  82 CALM      30.09S
$$

TNZ012-013-036-069-073-074-020600-
CENTRAL EAST TENNESSEE

CITY           SKY/WX    TMP DP  RH WIND       PRES   REMARKS
KNOXVILLE      NOT AVBL
OAK RIDGE      CLEAR     59  56  89 CALM      30.06R
GATLINBURG     CLEAR     59  57  94 CALM      30.04S
MORRISTOWN     CLEAR     59  55  88 CALM      30.06S
$$

TNZ083-085-099-020600-
SOUTHEAST TENNESSEE

CITY           SKY/WX    TMP DP  RH WIND       PRES   REMARKS
CHATTANOOGA    CLEAR     66  61  84 CALM      30.03R
$$

SKY/WX REPORTED AS FAIR MEANS FEW OR NO CLOUDS BELOW
12 THOUSAND FEET.



USA.gov is the U.S. government's official web portal to all federal, state and local government web resources and services.